Location: Unspecified
(34.4950°S, 58.5160°W)
Time: 17:53:09
(UTC+00:00)

BlueWalker 3 - Pass Details

Date: 20 February 2026
Orbit: 451 x 458 km, 53.2° (Epoch: 6 March)

Event Time Altitude Azimuth Distance (km) Brightness Sun altitude
Rises 00:35:34 0° 262° (W) 2,479 6.6 -22.2°
Reaches altitude 10° 00:39:13 10° 224° (SW) 1,614 5.5 -22.9°
Maximum altitude 00:40:15 11° 207° (SSW) 1,558 5.2 -23.0°
Drops below altitude 10° 00:41:18 10° 190° (S) 1,619 5.1 -23.2°
Sets 00:44:59 0° 152° (SSE) 2,502 5.6 -23.9°
